Weather History for Fallon NAS, NV

Change the Weather History Date:

Friday, November 9, 2012

  Actual Average Record
Temperature  
Mean Temperature 34 °F -  
Max Temperature 43 °F 57 °F 81 °F (1931)
Min Temperature 24 °F 26 °F 11 °F (1948)
Degree Days  
Heating Degree Days 32    
Moisture  
Dew Point 21 °F    
Average Humidity 63    
Maximum Humidity 85    
Minimum Humidity 28    
Precipitation  
Precipitation 0.00 in - - ()
Sea Level Pressure  
Sea Level Pressure 29.73 in    
Wind  
Wind Speed 5 mph (West)    
Max Wind Speed 14 mph    
Max Gust Speed 21 mph    
Visibility 10 miles    
Events      
Averages and records for this station are not official NWS values.
T = Trace of Precipitation, MM = Missing Value Source: NWS Daily Summary

Daily Weather History Graph

Daily Weather History Graph

Search for Another Location

Airport:

Trip Planner

Search our weather history database for the weather conditions in past years. The results will help you decide how hot, cold, wet, or windy it might be!

Date:

Astronomy

Nov. 09, 2012 Rise Set
Actual Time 6:32 AM PST 4:44 PM PST
Civil Twilight 6:04 AM PST 5:12 PM PST
Nautical Twilight 5:31 AM PST 5:44 PM PST
Astronomical Twilight 5:00 AM PST 6:16 PM PST
Moon 1:37 AM PST (11/9) 1:59 PM PST (11/9)
Length of Visible Light 11h 08m
Length of Day
10h 11m
Waning Crescent, 22% of the Moon is Illuminated
Nov 9
Waning Crescent
Nov 13
New
Nov 20
First Quarter
Nov 28
Full
Dec 6
Last Quarter

Hourly Weather History & Observations

Time (PST) Temp. Windchill Dew Point Humidity Pressure Visibility Wind Dir Wind Speed Gust Speed Precip Events Conditions
12:56 AM 37.0 °F 31.6 °F 25.0 °F 62% 29.70 in 10.0 mi WNW 6.9 mph - N/A   Scattered Clouds
1:56 AM 35.1 °F 32.2 °F 24.1 °F 64% 29.71 in 10.0 mi NNW 3.5 mph - N/A   Partly Cloudy
2:56 AM 33.1 °F - 21.9 °F 64% 29.71 in 10.0 mi Calm Calm - N/A   Clear
3:56 AM 30.0 °F - 19.9 °F 66% 29.71 in 10.0 mi Calm Calm - N/A   Overcast
4:56 AM 28.0 °F - 19.0 °F 69% 29.71 in 10.0 mi Calm Calm - N/A   Scattered Clouds
5:56 AM 27.0 °F - 19.9 °F 75% 29.71 in 10.0 mi Calm Calm - N/A   Partly Cloudy
6:18 AM 24.8 °F 16.9 °F 17.6 °F 74% 29.77 in 10.0 mi NW 6.9 mph - N/A   Mostly Cloudy
6:56 AM 28.9 °F 25.2 °F 21.0 °F 72% 29.73 in 10.0 mi South 3.5 mph - N/A   Mostly Cloudy
7:56 AM 35.1 °F - 23.0 °F 61% 29.73 in 10.0 mi Calm Calm - N/A   Mostly Cloudy
8:56 AM 35.1 °F 32.2 °F 21.9 °F 59% 29.74 in 10.0 mi North 3.5 mph - N/A   Overcast
9:56 AM 39.9 °F 34.5 °F 19.0 °F 43% 29.73 in 10.0 mi NW 8.1 mph - N/A   Mostly Cloudy
10:56 AM 42.1 °F 37.1 °F 12.9 °F 31% 29.73 in 10.0 mi NNW 8.1 mph - N/A   Mostly Cloudy
11:56 AM 42.1 °F 37.1 °F 12.9 °F 31% 29.70 in 10.0 mi West 8.1 mph - N/A   Mostly Cloudy
12:56 PM 43.0 °F 37.2 °F 12.0 °F 28% 29.69 in 10.0 mi West 10.4 mph - N/A   Mostly Cloudy
1:56 PM 41.0 °F 33.9 °F 17.1 °F 38% 29.70 in 10.0 mi West 12.7 mph - N/A   Mostly Cloudy
2:56 PM 39.0 °F 31.0 °F 18.0 °F 43% 29.71 in 10.0 mi West 13.8 mph - N/A   Overcast
3:27 PM 37.4 °F 29.8 °F 23.0 °F 56% 29.77 in 10.0 mi NW 11.5 mph - N/A   Mostly Cloudy
3:56 PM 37.0 °F 30.4 °F 23.0 °F 57% 29.71 in 10.0 mi NW 9.2 mph - N/A   Mostly Cloudy
4:56 PM 35.1 °F 26.4 °F 21.9 °F 59% 29.72 in 10.0 mi West 12.7 mph 20.7 mph N/A   Mostly Cloudy
5:56 PM 30.9 °F 23.5 °F 24.1 °F 76% 29.74 in 10.0 mi West 8.1 mph - N/A   Mostly Cloudy
6:56 PM 30.0 °F 22.4 °F 24.1 °F 79% 29.74 in 10.0 mi SW 8.1 mph - N/A   Mostly Cloudy
7:56 PM 28.9 °F 22.8 °F 24.1 °F 82% 29.75 in 10.0 mi SW 5.8 mph - N/A   Mostly Cloudy
8:56 PM 28.0 °F 19.3 °F 23.0 °F 81% 29.76 in 10.0 mi WSW 9.2 mph - N/A   Mostly Cloudy
9:56 PM 27.0 °F 23.0 °F 23.0 °F 85% 29.76 in 10.0 mi WSW 3.5 mph - N/A   Mostly Cloudy
10:12 PM 24.8 °F 19.1 °F 19.4 °F 80% 29.82 in 10.0 mi SE 4.6 mph - N/A   Mostly Cloudy
10:56 PM 25.0 °F 20.7 °F 21.0 °F 85% 29.76 in 10.0 mi SSW 3.5 mph - N/A   Mostly Cloudy
11:56 PM 28.9 °F 22.8 °F 23.0 °F 78% 29.76 in 10.0 mi SW 5.8 mph - N/A   Overcast